Terminal Aerodrome Forecast
Issued by NWS Charleston, WV

Current Version | Previous Version | Graphics & Text | Print | Product List | Glossary On
Versions: 1 2 3 4 5 6 7 8 9 10 11 12 13 14 15 16 17 18 19 20 21 22 23
000
FTUS41 KRLX 290554
TAFEKN
TAF
KEKN 290554Z 2906/3006 00000KT 1/4SM FG BKN001
      TEMPO 2906/2908 2SM BR SCT002
     FM291100 00000KT 1SM BR BKN002
      TEMPO 2911/2913 5SM BR SCT004
     FM291300 00000KT 6SM BR FEW150
     FM291400 00000KT P6SM FEW150
     FM291800 25004KT P6SM BKN070=

USA.gov is the U.S. government's official web portal to all federal, state and local government web resources and services.